                ,  1.160,  1.308,  1.456,  1.604,  1.751,  1.899,  2.047,  2.194,  2.342,  2.490,  2.638,  2.785,  2.933,  3.081,  3.229,  3.376,  3.524,  3.672,  3.819,  3.967,  4.115,  4.263,  4.410,  4.558,  4.706,  4.853,  5.001,  5.149,  5.297,  5.444
2006/04/24 00:00,    4.5,    9.5,    9.9,    9.9,   10.5,   10.1,   11.3,   12.7,   14.3,   16.1,   15.7,  999.0,  999.0,  999.0,    0.1,  999.0,  999.0,  999.0,  999.0,  999.0,  999.0,  999.0,  999.0,  999.0,    0.9,  999.0,  999.0,  999.0,  999.0,  999.0
2006/04/24 00:10,    9.1,   10.3,    9.7,    8.4,    8.6,    9.3,   10.4,   11.7,   13.8,   14.8,  999.0,  999.0,  999.0,  999.0,  999.0,  999.0,  999.0,  999.0,  999.0,    0.9,  999.0,    2.0,  999.0,    1.1,    0.4,  999.0,  999.0,  999.0,  999.0,  999.0
2006/04/24 00:20,    6.7,    7.1,    7.6,    7.6,    7.8,  999.0,  999.0,   11.6,   12.9,   14.8,  999.0,   15.0,  999.0,  999.0,  999.0,    0.0,  999.0,  999.0,   -2.0,   -0.2,  999.0,  999.0,   -0.0,   -0.2,    0.2,  999.0,  999.0,  999.0,  999.0,  999.0
2006/04/24 00:30,    5.6,    7.1,    6.8,    8.3,    8.5,    9.1,    9.4,   11.5,   13.2,   15.3,   15.5,  999.0,  999.0,  999.0,  999.0,  999.0,  999.0,  999.0,  999.0,  999.0,  999.0,  999.0,  999.0,    0.0,   -0.2,  999.0,  999.0,  999.0,  999.0,  999.0
2006/04/24 00:40,    6.9,    8.5,    8.8,    8.8,    8.8,    8.8,    9.8,   11.0,   13.2,   14.0,   13.6,   15.7,  999.0,  999.0,  999.0,   -0.2,  999.0,  999.0,  999.0,  999.0,  999.0,  999.0,    0.7,    0.4,   -0.1,  999.0,  999.0,  999.0,  999.0,  999.0
2006/04/24 00:50,    6.0,    7.2,    7.1,    8.1,    9.5,   10.0,    9.9,   11.6,   12.8,   13.4,   13.7,   13.3,   12.9,    6.8,  999.0,    1.7,  999.0,  999.0,    0.2,   -0.5,  999.0,  999.0,  999.0,   -0.3,   -0.6,  999.0,  999.0,  999.0,  999.0,  999.0
2006/04/24 01:00,    7.2,    7.9,   11.0,    8.8,    9.3,   11.1,   11.0,   12.6,   12.2,   12.4,   13.4,   13.5,   13.5,    7.5,    2.0,   -0.7,  999.0,  999.0,    0.2,    0.8,  999.0,  999.0,  999.0,    0.3,   -0.5,  999.0,  999.0,  999.0,  999.0,  999.0
2006/04/24 01:10,    6.2,    8.3,  999.0,    7.9,    9.6,   10.6,   11.7,   11.5,   11.9,   13.4,   13.5,   14.8,   13.1,    8.5,    3.1,    1.2,  999.0,  999.0,  999.0,   -0.4,   -0.6,  999.0,   -0.7,    0.7,    0.4,  999.0,  999.0,  999.0,  999.0,  999.0
2006/04/24 01:20,    7.2,    7.4,    8.0,    8.8,   10.1,   10.6,   11.0,   11.7,   11.5,   13.1,   13.7,   12.6,   11.9,    9.1,    4.8,    0.5,  999.0,    0.6,    0.4,  999.0,  999.0,  999.0,   -1.2,    0.3,   -0.3,  999.0,  999.0,  999.0,  999.0,  999.0
2006/04/24 01:30,    6.2,    7.5,    8.7,   10.0,   10.7,   10.9,   10.9,   10.6,   10.4,   12.5,   12.3,  999.0,   12.5,    6.4,    3.9,    1.3,  999.0,  999.0,   -0.5,    0.7,  999.0,    0.1,  999.0,  999.0,   -0.3,  999.0,  999.0,  999.0,  999.0,  999.0
2006/04/24 01:40,    6.1,    7.8,    9.5,   11.5,   11.3,   10.8,   10.2,   11.3,    8.6,   11.9,   12.2,   12.1,   11.1,    9.0,    1.5,    1.1,  999.0,  999.0,   -0.0,   -0.8,  999.0,  999.0,  999.0,    0.5,   -0.4,  999.0,  999.0,  999.0,  999.0,  999.0
2006/04/24 01:50,    7.2,    7.8,    9.0,    9.9,    9.8,   11.0,   11.8,   11.6,   11.7,   12.0,   11.8,   11.8,   10.9,   10.7,    3.9,    2.7,  999.0,    0.6,  999.0,    0.4,  999.0,  999.0,  999.0,   -0.0,    0.2,  999.0,  999.0,  999.0,  999.0,  999.0
2006/04/24 02:00,    7.0,    7.0,    8.1,    8.7,  999.0,  999.0,  999.0,  999.0,  999.0,  999.0,  999.0,  999.0,   11.0,   10.9,    6.2,  999.0,  999.0,  999.0,  999.0,    0.1,  999.0,  999.0,  999.0,   -0.0,    0.7,  999.0,  999.0,  999.0,  999.0,  999.0
2006/04/24 02:10,    5.7,    6.4,    6.3,    6.4,    8.0,   10.6,   11.4,  999.0,  999.0,  999.0,  999.0,   11.1,   11.7,    8.5,    6.9,    5.5,  999.0,  999.0,  999.0,   -0.1,  999.0,  999.0,  999.0,    0.4,   -0.7,  999.0,  999.0,  999.0,  999.0,  999.0
2006/04/24 02:20,    7.3,    6.9,    4.9,    5.3,    6.7,    8.7,    9.5,   11.5,   11.6,   11.8,   12.6,   11.4,   11.3,    7.4,    7.2,    4.1,  999.0,    1.0,    0.4,  999.0,    0.7,  999.0,  999.0,    0.6,  999.0,  999.0,  999.0,  999.0,  999.0,  999.0
2006/04/24 02:30,    7.0,    5.7,    5.2,    4.8,    5.4,    6.9,    8.6,    9.8,   11.0,   12.6,  999.0,   11.4,  999.0,    7.1,    4.6,    3.3,  999.0,  999.0,    0.3,  999.0,  999.0,  999.0,    1.8,    1.1,   -0.5,  999.0,  999.0,  999.0,  999.0,   -0.1
2006/04/24 02:40,    8.4,    8.6,    8.1,    6.9,    6.8,    7.1,    7.7,    8.7,   10.3,   10.7,   11.3,   10.6,   11.1,  999.0,    2.3,    0.8,    0.5,   -0.8,   -0.2,   -0.2,   -0.2,    0.4,  999.0,   -0.9,   -0.6,  999.0,  999.0,  999.0,  999.0,    0.3
2006/04/24 02:50,    8.7,    9.8,    9.7,    9.1,    9.5,    9.8,   10.1,   10.5,   10.3,    9.6,   10.6,   11.1,  999.0,    8.0,    2.0,    0.3,  999.0,   -0.4,    0.3,  999.0,    0.1,  999.0,  999.0,   -0.3,    0.4,  999.0,  999.0,  999.0,  999.0,  999.0
2006/04/24 03:00,    9.0,    9.4,   10.1,    9.6,    9.7,    9.7,    9.9,    9.9,    9.3,    9.4,   11.4,   10.8,  999.0,    0.6,    0.2,   -0.1,  999.0,  999.0,    0.0,   -1.2,  999.0,  999.0,    0.6,    0.5,   -0.6,  999.0,  999.0,  999.0,  999.0,    2.0
2006/04/24 03:10,    7.7,    9.1,   10.0,    9.8,    9.5,    9.5,    9.0,    9.6,    9.5,    8.9,   10.8,   10.3,  999.0,    0.8,   -0.0,    0.2,    0.2,   -0.3,    0.3,    2.1,   -0.5,   -0.6,   -0.6,    0.5,   -0.2,  999.0,  999.0,  999.0,  999.0,  999.0
2006/04/24 03:20,    6.8,   12.2,    9.4,   12.0,    9.7,   10.6,   10.4,   10.2,    9.4,    9.6,   10.0,    9.3,   11.0,    1.1,    0.4,   -0.6,    0.6,  999.0,   -0.5,    0.3,    1.2,  999.0,  999.0,    0.0,   -0.1,  999.0,  999.0,  999.0,  999.0,  999.0
2006/04/24 03:30,    9.7,   11.8,   10.7,   10.3,   10.9,   11.7,   11.0,    9.8,   10.0,    9.9,   11.3,   10.1,  999.0,    1.9,   -0.1,    0.7,  999.0,  999.0,    0.6,  999.0,   -0.9,  999.0,   -0.1,    0.0,   -0.3,  999.0,  999.0,  999.0,  999.0,   -0.7
2006/04/24 03:40,    8.8,   10.2,   10.5,   10.2,   10.7,   11.5,   11.2,   10.0,    9.5,   10.0,   11.0,  999.0,  999.0,    0.2,   -0.1,    0.1,  999.0,  999.0,    0.3,    0.3,    0.0,    0.3,    1.5,    0.6,    0.1,  999.0,  999.0,  999.0,  999.0,  999.0
2006/04/24 03:50,    8.2,    9.3,    9.6,    9.7,   10.8,   10.8,   10.2,   10.6,   10.2,   11.1,  999.0,  999.0,  999.0,    0.7,   -0.2,   -0.1,  999.0,   -0.2,    0.4,    1.2,   -0.2,  999.0,   -0.1,    0.1,   -0.3,  999.0,  999.0,  999.0,  999.0,  999.0
2006/04/24 04:00,    8.8,    9.3,    9.4,    9.2,   10.4,   11.8,   10.4,   10.1,   10.5,   11.4,   10.5,   11.3,  999.0,    2.6,    2.2,   -0.1,  999.0,    0.8,  999.0,    0.2,   -0.4,    0.4,  999.0,   -0.5,    0.4,  999.0,  999.0,  999.0,  999.0,  999.0
2006/04/24 04:10,    9.6,  999.0,   11.5,   10.5,   10.1,   10.6,   10.1,   10.6,   10.1,   10.5,   11.4,   12.0,  999.0,    0.5,    1.6,   -0.1,   -0.5,    0.4,   -0.1,  999.0,   -0.4,    1.2,    0.5,    0.2,    0.8,  999.0,  999.0,  999.0,  999.0,   -0.5
2006/04/24 04:20,    9.7,   10.7,   11.2,   11.7,   10.8,   10.4,   10.7,    9.4,    9.3,    9.6,   11.1,   12.4,  999.0,    3.2,    0.8,   -0.0,    0.4,    0.1,    0.3,   -0.1,   -1.0,   -0.9,    0.0,   -0.1,   -0.7,  999.0,  999.0,  999.0,  999.0,   -0.1
2006/04/24 04:30,    9.6,    9.8,   10.2,   10.5,    9.2,   10.2,    9.5,    8.6,    9.5,    9.7,   10.6,   12.4,  999.0,  999.0,    0.2,    0.4,  999.0,    0.1,   -0.0,  999.0,  999.0,    0.0,  999.0,   -0.7,   -0.8,  999.0,  999.0,  999.0,  999.0,   -0.2
2006/04/24 04:40,    6.6,   11.0,   11.5,   11.1,   11.0,   10.2,   10.2,   10.7,   10.9,   10.9,   11.7,   11.7,   11.5,    1.7,    0.0,   -0.8,  999.0,    0.4,    0.1,   -0.4,  999.0,   -0.8,   -1.8,    0.9,    0.4,  999.0,  999.0,  999.0,  999.0,  999.0
2006/04/24 04:50,    6.0,    9.7,   10.0,   10.5,   10.5,   11.2,   10.6,   10.2,    9.3,    9.0,   10.0,   10.6,   10.2,    2.0,   -0.4,    0.6,    0.6,    0.4,    1.1,  999.0,   -0.0,   -0.3,   -0.1,    0.1,    0.0,    0.8,  999.0,  999.0,  999.0,    0.2
2006/04/24 05:00,    3.9,    8.2,   10.6,   10.9,   10.8,   10.9,   10.4,    9.7,  999.0,   11.0,  999.0,   10.8,    8.5,    1.4,    0.8,   -0.2,  999.0,   -0.1,    0.1,    0.5,   -0.0,   -0.1,   -0.6,   -0.0,   -0.4,  999.0,  999.0,  999.0,  999.0,   -0.5
2006/04/24 05:10,    6.9,    9.9,   10.8,   10.4,   10.6,   10.2,    9.7,   10.3,  999.0,   10.8,  999.0,  999.0,  999.0,   -0.7,  999.0,   -1.1,  999.0,    0.1,   -0.7,  999.0,    0.4,    2.4,   -0.3,    0.0,    1.4,  999.0,  999.0,  999.0,  999.0,    0.2
2006/04/24 05:20,    5.2,    8.3,   10.3,   10.6,   10.9,   10.7,    9.9,   12.0,    9.7,   10.1,  999.0,  999.0,  999.0,  999.0,   -0.1,   -0.6,  999.0,  999.0,  999.0,    0.3,    0.6,    0.7,    0.0,    0.2,  999.0,  999.0,  999.0,  999.0,  999.0,    0.2
2006/04/24 05:30,    5.8,    9.5,   10.1,   11.4,   10.8,   11.2,   11.1,   10.0,   10.4,    9.7,  999.0,  999.0,  999.0,  999.0,   -0.7,    0.0,  999.0,  999.0,  999.0,  999.0,  999.0,  999.0,  999.0,   -0.7,   -0.1,  999.0,  999.0,  999.0,  999.0,   -1.8
2006/04/24 05:40,    2.2,  999.0,  999.0,   10.2,    9.7,   10.7,   10.1,    9.9,  999.0,  999.0,   10.6,  999.0,  999.0,  999.0,  999.0,   -2.5,  999.0,  999.0,  999.0,  999.0,  999.0,  999.0,  999.0,    0.3,   -0.2,  999.0,  999.0,  999.0,  999.0,  999.0
2006/04/24 05:50,    0.9,    7.2,    9.3,    8.3,    8.3,    9.2,    9.5,   10.6,  999.0,    8.7,   10.5,   11.1,  999.0,   -0.2,   -0.5,   -0.3,  999.0,  999.0,  999.0,    0.2,  999.0,  999.0,    0.5,   -0.7,   -0.2,  999.0,  999.0,  999.0,  999.0,  999.0
2006/04/24 06:00,    5.3,    9.0,    8.9,    9.6,   10.3,   10.8,    9.8,   10.6,    9.9,   10.7,   11.0,  999.0,  999.0,  999.0,  999.0,   -0.4,  999.0,  999.0,  999.0,   -0.1,  999.0,  999.0,   -0.2,    0.8,   -0.4,  999.0,  999.0,  999.0,  999.0,  999.0
2006/04/24 06:10,    7.0,    9.3,    9.4,    8.0,    9.5,    9.9,   10.0,   10.7,   10.3,   10.5,   11.1,  999.0,  999.0,  999.0,    1.1,   -0.5,  999.0,  999.0,    0.4,  999.0,  999.0,  999.0,  999.0,   -0.3,  999.0,  999.0,  999.0,  999.0,  999.0,  999.0
2006/04/24 06:20,    6.0,    8.0,    8.9,    9.0,    8.6,    8.8,    9.0,    9.8,    9.6,    9.9,    9.9,    8.9,    8.4,   -1.3,   -0.9,    0.2,  999.0,  999.0,  999.0,    1.3,  999.0,  999.0,  999.0,  999.0,    0.3,  999.0,  999.0,  999.0,  999.0,  999.0
2006/04/24 06:30,    5.0,    8.0,    9.5,    9.1,    9.5,    9.3,    9.5,    9.3,    9.9,   10.3,  999.0,  999.0,  999.0,  999.0,   -1.3,   -0.8,  999.0,  999.0,  999.0,  999.0,  999.0,  999.0,  999.0,    0.2,   -0.8,  999.0,  999.0,  999.0,  999.0,  999.0
2006/04/24 06:40,    8.2,    8.5,    9.5,    9.4,    9.6,    9.8,    9.6,    9.9,   10.3,  999.0,  999.0,  999.0,  999.0,  999.0,   -0.1,    0.7,  999.0,  999.0,  999.0,    1.0,  999.0,  999.0,  999.0,    0.3,   -1.2,  999.0,  999.0,  999.0,  999.0,  999.0
2006/04/24 06:50,    6.9,    8.3,    9.5,    9.3,    9.1,    9.4,    9.7,   10.4,   10.1,    9.7,    9.3,    9.9,  999.0,  999.0,  999.0,   -0.1,  999.0,  999.0,  999.0,    0.6,  999.0,  999.0,    1.2,    0.2,   -2.0,  999.0,  999.0,  999.0,  999.0,  999.0
2006/04/24 07:00,    7.5,    9.4,    8.4,    9.2,    9.7,   10.0,    9.8,    9.7,   10.3,   10.3,   10.1,   10.2,  999.0,   -0.4,   -0.0,    1.2,  999.0,   -0.2,  999.0,  999.0,  999.0,  999.0,    0.9,   -1.3,   -0.7,  999.0,  999.0,  999.0,  999.0,  999.0
2006/04/24 07:10,    6.4,    9.3,    9.4,    9.1,    9.7,   10.0,   10.5,   10.0,   10.5,   10.6,    9.6,   10.6,  999.0,    0.5,  999.0,  999.0,  999.0,  999.0,    1.3,  999.0,  999.0,  999.0,  999.0,    0.3,   -0.0,  999.0,  999.0,  999.0,  999.0,    0.2
2006/04/24 07:20,    7.5,    9.0,    9.5,    9.1,    8.7,    9.7,   10.3,   10.3,   10.3,   10.2,    9.5,   10.0,    7.9,  999.0,  999.0,   -0.2,  999.0,  999.0,    0.2,   -0.1,  999.0,  999.0,  999.0,   -2.0,   -0.5,  999.0,  999.0,  999.0,  999.0,  999.0
2006/04/24 07:30,    6.3,    8.7,    9.8,    9.4,    9.0,    9.1,    9.6,   10.1,   10.4,   10.6,   10.5,   10.7,    5.9,  999.0,    0.2,  999.0,  999.0,  999.0,    0.2,    0.5,  999.0,    0.5,    0.3,    0.0,   -0.3,  999.0,  999.0,  999.0,  999.0,  999.0
2006/04/24 07:40,    7.2,    8.5,    9.6,    9.4,    9.5,    9.3,    9.1,    9.7,   10.0,   10.6,  999.0,   10.0,    9.1,  999.0,    1.0,    1.6,  999.0,  999.0,   -0.3,  999.0,  999.0,    0.1,  999.0,    0.4,  999.0,  999.0,  999.0,  999.0,  999.0,  999.0
2006/04/24 07:50,    6.3,    7.8,    9.5,    9.8,    9.7,    9.4,    9.1,    9.3,    9.4,   11.1,    9.6,   10.0,    4.0,  999.0,  999.0,    0.8,  999.0,  999.0,   -0.5,   -0.9,    1.6,  999.0,  999.0,  999.0,    1.0,  999.0,  999.0,  999.0,  999.0,  999.0
2006/04/24 08:00,    6.3,    7.7,    9.5,    8.3,    8.6,    9.4,    9.3,    9.9,   10.0,   11.2,   10.0,   10.5,    7.9,    6.6,    2.6,    1.3,  999.0,  999.0,   -0.6,    0.1,  999.0,  999.0,    1.3,   -0.3,    0.0,  999.0,  999.0,  999.0,  999.0,  999.0
2006/04/24 08:10,    6.5,    7.0,    8.5,    8.5,    8.4,    9.2,   10.0,   10.2,   11.0,   10.6,   10.5,   10.3,    7.2,    6.2,    5.0,    0.4,  999.0,  999.0,    0.0,  999.0,  999.0,  999.0,  999.0,   -0.5,   -0.0,  999.0,  999.0,  999.0,  999.0,  999.0
2006/04/24 08:20,    5.3,    8.2,    7.4,    8.3,    8.5,    9.3,    9.4,   10.2,   10.0,    9.9,   10.0,    9.3,    7.6,    4.7,    3.2,    0.9,  999.0,  999.0,  999.0,    1.3,  999.0,  999.0,  999.0,   -0.1,    0.6,  999.0,  999.0,  999.0,  999.0,  999.0
2006/04/24 08:30,    4.4,    5.9,    8.0,    9.0,    9.3,    9.5,    9.4,    9.7,   10.6,   10.8,   10.7,    9.9,    8.6,    6.8,    4.6,    3.0,  999.0,  999.0,  999.0,    1.5,  999.0,  999.0,  999.0,   -0.4,    0.1,  999.0,  999.0,  999.0,  999.0,  999.0
2006/04/24 08:40,    5.8,    6.2,    5.8,  999.0,    8.7,    9.5,    9.7,    9.8,   10.1,   10.0,    9.4,   11.2,    8.7,  999.0,   -0.6,    1.5,  999.0,  999.0,   -0.1,  999.0,  999.0,  999.0,  999.0,    1.5,  999.0,  999.0,  999.0,  999.0,  999.0,  999.0
2006/04/24 08:50,    4.4,    6.9,    9.2,    8.5,    9.5,   10.3,   10.1,   10.4,   10.7,   11.2,   10.3,    8.6,    7.8,  999.0,  999.0,    4.4,  999.0,  999.0,  999.0,  999.0,  999.0,  999.0,  999.0,  999.0,   -0.7,  999.0,  999.0,  999.0,  999.0,  999.0
2006/04/24 09:00,    5.9,    5.4,    7.1,    8.0,    9.1,    9.6,    9.9,    9.4,   10.0,   10.1,   10.2,  999.0,    9.0,  999.0,    5.0,  999.0,  999.0,  999.0,  999.0,   -2.1,  999.0,  999.0,   -0.2,    0.2,    0.3,  999.0,  999.0,  999.0,  999.0,  999.0
2006/04/24 09:10,    3.2,    5.7,    5.7,    8.2,    8.8,    9.0,   10.0,   10.3,    8.9,    9.4,    8.9,  999.0,    8.7,  999.0,    5.1,    6.4,  999.0,  999.0,  999.0,  999.0,  999.0,  999.0,  999.0,    0.1,    0.9,  999.0,  999.0,  999.0,  999.0,  999.0
2006/04/24 09:20,    3.3,    3.9,    6.7,    7.9,    8.1,    7.5,    8.2,    8.7,    8.5,    8.5,    9.8,    9.4,  999.0,  999.0,    5.2,    3.3,    6.1,  999.0,  999.0,    1.0,  999.0,  999.0,  999.0,  999.0,    0.6,  999.0,  999.0,  999.0,  999.0,  999.0
2006/04/24 09:30,    3.5,    5.8,    6.8,    7.1,    9.2,    9.1,    9.7,    7.7,    9.1,  999.0,    7.6,    9.7,  999.0,  999.0,    5.1,    6.5,    7.2,  999.0,    0.5,  999.0,  999.0,  999.0,  999.0,   -0.1,    0.9,  999.0,  999.0,  999.0,  999.0,  999.0
2006/04/24 09:40,  999.0,    5.2,    7.6,    7.4,    8.3,    6.3,    8.1,    7.9,    8.2,    9.7,   10.1,    8.0,  999.0,    7.9,  999.0,    6.0,    5.9,  999.0,   -1.5,  999.0,  999.0,  999.0,  999.0,    1.2,  999.0,  999.0,  999.0,  999.0,  999.0,  999.0
2006/04/24 09:50,    3.9,    5.4,    6.7,    8.3,    9.1,   10.5,    9.1,    7.9,    7.2,    8.1,    9.4,    8.2,    7.5,    6.4,    5.8,    5.7,    5.8,  999.0,   -0.8,    0.0,  999.0,  999.0,    0.4,    0.9,   -1.2,  999.0,  999.0,  999.0,  999.0,  999.0
2006/04/24 10:00,    4.3,    7.6,    8.3,    8.4,    8.9,    9.7,    9.5,    9.1,    8.3,    8.8,    9.0,    9.0,    7.6,    4.4,    2.3,    0.6,  999.0,    3.0,   -0.1,   -0.5,  999.0,  999.0,  999.0,    0.6,   -0.6,  999.0,  999.0,  999.0,  999.0,  999.0
2006/04/24 10:10,    6.9,    6.7,    8.2,   10.1,    8.9,    9.3,    9.7,    9.1,    8.4,    7.8,    8.4,    9.4,  999.0,    0.7,    3.0,    0.5,  999.0,  999.0,  999.0,    0.2,  999.0,  999.0,   -0.6,   -0.1,   -0.5,  999.0,  999.0,  999.0,  999.0,  999.0
2006/04/24 10:20,    4.2,    5.0,    7.4,    8.7,    9.2,    8.8,    7.9,    9.0,  999.0,    8.2,    8.1,  999.0,  999.0,    0.5,    1.4,    1.4,    4.2,    1.8,   -0.0,  999.0,  999.0,  999.0,    0.2,   -0.7,    0.1,  999.0,  999.0,  999.0,  999.0,  999.0
2006/04/24 10:30,    3.1,    6.4,    6.7,    6.9,    9.2,    9.0,    8.6,    8.7,    7.1,    7.5,    6.5,  999.0,  999.0,   -1.5,   -1.0,    1.1,    2.9,    0.9,  999.0,   -1.0,  999.0,    0.7,   -0.0,   -0.7,    0.1,  999.0,  999.0,  999.0,  999.0,  999.0
2006/04/24 10:40,    4.7,    7.1,    7.4,    8.1,   10.6,    8.7,    7.4,    5.4,  999.0,  999.0,  999.0,  999.0,  999.0,   -0.2,   -0.4,  999.0,    1.9,    4.3,   -0.5,   -1.1,  999.0,  999.0,  999.0,    0.2,    0.1,  999.0,  999.0,  999.0,  999.0,  999.0
2006/04/24 10:50,    5.2,    8.4,    9.2,    6.2,   10.3,    8.9,    8.7,    8.7,    8.6,    9.6,    7.3,    8.5,    5.2,    3.0,    1.4,    0.6,    0.9,    1.5,   -0.1,    0.0,    0.6,   -1.3,   -0.0,   -0.8,    0.8,  999.0,  999.0,  999.0,  999.0,    0.0
2006/04/24 11:00,    5.3,    5.4,    3.7,    7.6,    7.9,    8.8,    8.7,    9.0,    9.3,    8.8,    7.4,    9.0,    2.7,    0.5,    0.2,   -0.1,  999.0,    4.1,    2.1,    0.7,  999.0,  999.0,   -0.1,   -0.4,    0.2,  999.0,  999.0,  999.0,  999.0,  999.0
2006/04/24 11:10,    6.3,    6.4,    8.1,    8.4,  999.0,    9.9,    9.4,    9.5,    9.4,    8.8,  999.0,    7.6,    3.6,    0.1,    0.3,   -0.4,  999.0,    1.4,    0.2,   -0.8,  999.0,    0.6,    0.6,   -0.7,    0.3,  999.0,  999.0,  999.0,  999.0,  999.0
2006/04/24 11:20,    4.8,    5.4,    8.0,    7.9,    8.7,    8.8,    8.3,    8.8,    7.9,    8.1,    6.7,    8.5,    2.6,  999.0,   -0.1,  999.0,  999.0,  999.0,    0.2,  999.0,  999.0,  999.0,   -0.1,   -0.5,   -0.4,  999.0,  999.0,  999.0,  999.0,  999.0
2006/04/24 11:30,    2.3,    4.8,    7.2,    8.2,    8.6,    8.0,    8.5,    8.0,    8.0,    8.5,    7.8,  999.0,  999.0,  999.0,    0.3,    1.1,  999.0,    0.2,  999.0,  999.0,  999.0,   -1.0,   -0.6,   -0.3,    0.0,  999.0,  999.0,  999.0,  999.0,  999.0
2006/04/24 11:40,    6.9,    7.6,    7.9,    8.6,    8.7,    8.3,    8.3,    8.8,    8.7,    7.6,    8.2,  999.0,  999.0,    2.3,    4.5,   -0.3,  999.0,    3.0,  999.0,  999.0,  999.0,  999.0,   -1.7,   -0.7,    0.8,  999.0,  999.0,  999.0,  999.0,  999.0
2006/04/24 11:50,    5.0,    5.7,    8.0,    8.0,    7.7,    7.2,    6.4,    8.0,    7.0,    9.0,    5.8,    8.8,    7.7,    1.7,    1.4,    1.0,  999.0,    1.3,    1.0,  999.0,  999.0,  999.0,   -0.0,    0.1,    0.1,  999.0,  999.0,  999.0,  999.0,  999.0
2006/04/24 12:00,    5.4,    5.7,    7.6,  999.0,    7.2,    8.2,  999.0,    8.2,    9.0,    8.0,    8.0,    6.3,    8.9,    0.6,    2.8,  999.0,  999.0,    1.5,    1.4,    0.0,  999.0,    0.2,    0.0,   -0.3,  999.0,  999.0,  999.0,  999.0,  999.0,  999.0
2006/04/24 12:10,    3.0,    5.2,    9.3,    8.5,    5.8,  999.0,    6.6,    6.9,    9.1,  999.0,    9.7,  999.0,    8.9,    1.3,    0.4,    2.0,    1.1,  999.0,    0.9,   -0.2,  999.0,   -2.0,  999.0,   -0.7,   -1.1,  999.0,  999.0,  999.0,  999.0,  999.0
2006/04/24 12:20,    3.4,    7.0,    7.5,    7.6,    7.8,    7.8,    8.8,    9.2,    8.6,    7.7,    8.2,  999.0,    0.9,    0.9,   -0.4,    0.0,  999.0,    0.8,    0.4,    0.4,  999.0,  999.0,    0.5,    0.4,   -0.2,  999.0,  999.0,  999.0,  999.0,  999.0
2006/04/24 12:30,    5.6,    4.9,    7.3,    7.9,    8.7,    8.1,    8.5,    8.4,    8.7,    7.8,    7.3,    7.9,    7.2,    2.6,   -0.2,   -0.4,  999.0,    0.2,   -0.5,   -0.1,    0.2,    0.4,    0.1,   -0.1,   -0.1,  999.0,  999.0,  999.0,  999.0,  999.0
2006/04/24 12:40,    4.8,    5.7,    7.9,    8.1,    7.4,    6.8,    8.3,    8.8,    8.9,    9.0,    7.8,    7.6,    7.8,    2.4,  999.0,    1.1,  999.0,  999.0,  999.0,    0.4,  999.0,   -0.4,    0.5,  999.0,   -0.6,  999.0,  999.0,  999.0,  999.0,  999.0
2006/04/24 12:50,    4.5,    6.4,    6.4,    7.8,    7.4,    7.8,    9.7,    8.5,    8.7,    9.7,    8.1,    9.9,    8.9,    4.0,    0.5,    0.5,  999.0,    0.4,    0.4,    0.3,    0.7,   -0.8,    0.2,    0.3,   -0.1,  999.0,  999.0,  999.0,  999.0,  999.0
2006/04/24 13:00,    6.0,    6.0,    6.4,    6.3,    7.3,    6.4,    8.4,    8.2,    8.4,    8.5,    8.3,    8.6,    7.2,    4.6,    1.6,    1.2,  999.0,    1.2,  999.0,  999.0,  999.0,  999.0,    0.2,   -0.2,   -0.1,  999.0,  999.0,  999.0,  999.0,  999.0
2006/04/24 13:10,    6.1,    5.9,    6.1,    6.2,    6.8,    5.6,    8.4,    8.2,    8.9,    8.9,    9.1,    8.4,    7.3,    5.5,  999.0,  999.0,    4.4,    2.5,    0.9,    0.7,  999.0,  999.0,  999.0,    0.5,   -0.7,  999.0,  999.0,  999.0,  999.0,  999.0
2006/04/24 13:20,    4.4,    4.8,    5.5,    6.8,    7.2,    7.9,    8.8,    9.1,    9.0,    8.9,    9.2,    7.7,    8.5,    5.9,    1.3,    1.2,  999.0,    2.0,   -1.0,    1.7,    0.4,   -0.7,   -0.0,    0.0,   -0.2,  999.0,  999.0,  999.0,  999.0,  999.0
2006/04/24 13:30,    3.3,    4.3,    6.6,    7.4,    7.8,    8.3,    8.8,    9.1,    8.8,    9.5,    7.7,    7.9,    8.1,    5.9,    1.5,  999.0,  999.0,    1.5,    0.3,   -0.8,   -0.0,  999.0,   -0.0,    0.1,   -1.2,  999.0,  999.0,  999.0,  999.0,  999.0
2006/04/24 13:40,    3.5,    3.2,    5.0,    6.7,    7.7,    9.8,   10.0,   10.0,    9.6,   10.0,    9.5,    7.2,    6.7,  999.0,    0.7,    0.3,  999.0,    0.6,  999.0,   -0.1,  999.0,    0.1,   -0.4,  999.0,  999.0,  999.0,  999.0,  999.0,  999.0,  999.0
2006/04/24 13:50,    4.3,    6.6,    6.4,    6.7,    7.6,    8.6,    8.8,    9.0,    9.9,    9.7,   10.1,    8.4,    7.5,    5.1,  999.0,    1.2,    3.6,    0.6,    0.5,   -1.4,    0.3,   -0.3,   -0.6,   -0.1,    0.5,  999.0,  999.0,  999.0,  999.0,  999.0
2006/04/24 14:00,    3.6,    5.7,    6.7,    6.9,    7.5,    8.9,    9.1,    9.6,    9.1,    9.4,    7.1,    7.2,    7.1,    4.2,    4.7,    2.4,  999.0,    1.2,   -0.7,    1.9,  999.0,   -0.2,   -0.5,    0.1,   -0.2,  999.0,  999.0,  999.0,  999.0,  999.0
2006/04/24 14:10,    4.4,    5.8,    7.0,    8.6,    8.4,    9.4,    9.1,    9.1,    8.3,    7.4,    7.4,    6.9,    5.7,    3.5,    3.4,    4.3,    6.8,    0.4,    0.4,  999.0,   -0.7,  999.0,    0.7,    0.5,   -0.0,  999.0,  999.0,  999.0,  999.0,  999.0
2006/04/24 14:20,    6.2,    6.2,    7.5,    8.1,    9.0,    9.0,    9.3,    9.4,    8.2,    8.0,    7.1,    5.1,    4.9,    2.5,    2.6,    2.6,  999.0,    0.2,  999.0,  999.0,  999.0,  999.0,    0.1,   -0.6,   -0.0,  999.0,  999.0,  999.0,  999.0,  999.0
2006/04/24 14:30,    4.8,    6.4,    7.4,    9.0,    7.8,    8.3,    9.2,    9.2,    8.0,    7.3,    6.5,    5.5,    4.4,    3.4,    4.0,    2.9,    4.8,    2.2,  999.0,  999.0,  999.0,  999.0,  999.0,    0.6,    0.1,  999.0,  999.0,  999.0,  999.0,  999.0
2006/04/24 14:40,    4.2,    5.8,    7.8,    9.3,    9.0,    9.0,    9.1,    8.4,    8.4,    7.6,    7.8,    5.7,    5.4,    2.2,    3.2,    1.9,    4.7,    0.8,   -0.3,    0.8,  999.0,  999.0,  999.0,    0.9,    0.1,  999.0,  999.0,  999.0,  999.0,  999.0
2006/04/24 14:50,    4.3,    5.4,    6.8,    7.0,    7.4,    9.0,    8.2,    8.2,    8.0,    6.8,    6.3,    3.3,    7.4,    1.5,    3.1,    0.6,   -2.1,    0.4,  999.0,   -0.5,  999.0,  999.0,  999.0,   -0.8,   -0.1,  999.0,  999.0,  999.0,  999.0,  999.0
2006/04/24 15:00,    2.6,    5.8,    7.1,    6.6,    7.6,    8.4,    7.9,    7.6,    7.8,    7.7,    5.4,    4.3,    3.2,    2.4,   -0.4,  999.0,  999.0,  999.0,   -0.4,   -0.7,  999.0,  999.0,  999.0,    1.8,    0.4,  999.0,  999.0,  999.0,  999.0,  999.0
2006/04/24 15:10,    2.7,    3.8,    4.7,    6.9,    7.4,    7.8,    8.3,    7.8,    7.3,    6.9,    6.4,    6.1,    5.4,    1.5,    3.1,    1.2,  999.0,  999.0,  999.0,    0.2,  999.0,  999.0,  999.0,  999.0,  999.0,  999.0,  999.0,  999.0,  999.0,  999.0
2006/04/24 15:20,    2.3,    3.9,    4.4,    6.4,    7.0,    7.9,    7.6,    8.7,    8.5,    7.1,    6.3,    6.2,    4.1,    2.5,    1.4,    3.4,  999.0,  999.0,    0.3,   -0.5,  999.0,    0.5,  999.0,  999.0,   -0.2,  999.0,  999.0,  999.0,  999.0,  999.0
2006/04/24 15:30,    2.7,    4.3,    6.5,    7.4,    8.4,    8.6,    8.9,    8.6,    7.9,    7.2,    7.1,    5.4,    6.3,    4.1,    2.8,    2.4,    5.5,  999.0,  999.0,   -0.1,  999.0,  999.0,  999.0,   -0.6,   -1.4,  999.0,  999.0,  999.0,  999.0,  999.0
2006/04/24 15:40,    3.6,    6.9,    7.6,    8.2,    8.7,    9.6,    9.2,    8.8,    8.1,    8.1,    7.0,    7.5,    3.7,    5.0,    3.2,    0.7,  999.0,    0.8,  999.0,   -0.3,    0.6,  999.0,    0.9,    0.2,    0.6,  999.0,  999.0,  999.0,  999.0,  999.0
2006/04/24 15:50,    5.0,    6.7,    6.3,    6.8,    7.6,    9.0,    8.9,    8.2,    8.4,    8.6,    6.4,    6.2,    3.9,    5.0,    4.4,    2.4,  999.0,   -0.5,    0.5,    0.8,   -0.5,    0.1,  999.0,    0.7,   -0.5,  999.0,  999.0,  999.0,  999.0,  999.0
2006/04/24 16:00,    6.6,    5.6,    7.5,    8.2,    7.9,    8.9,    7.0,    6.8,    7.0,    6.8,    6.5,    6.0,    3.1,    2.7,    1.0,   -0.2,  999.0,    0.6,   -0.2,  999.0,   -0.2,  999.0,   -1.3,   -0.5,   -0.5,  999.0,  999.0,  999.0,  999.0,    0.5
2006/04/24 16:10,    3.7,    4.6,    7.2,    5.8,    6.4,    7.1,    6.2,    6.5,    6.4,    7.2,    6.2,    5.5,    3.6,    4.2,    3.6,    1.6,    2.0,   -0.3,   -0.4,   -0.5,  999.0,    0.2,   -0.2,   -0.6,    0.5,  999.0,  999.0,  999.0,  999.0,   -1.1
2006/04/24 16:20,    9.7,    9.3,    7.0,    5.5,    5.8,    4.4,    6.8,    6.0,    4.4,    5.6,    8.2,    7.5,    5.0,    4.0,    1.7,    2.0,    3.7,    0.4,    1.1,    0.2,    0.2,    1.3,  999.0,    0.6,   -0.6,    0.2,    0.9,  999.0,  999.0,  999.0
2006/04/24 16:30,    9.5,   10.9,   10.1,   10.0,   10.4,    9.7,    8.4,    6.8,    5.7,    6.3,    6.6,    6.8,    5.0,    5.1,    6.2,    5.6,    6.1,    4.1,    4.0,    4.2,    2.6,    2.1,    5.2,    1.6,    1.4,  999.0,    0.7,    0.6,    0.4,    0.3
2006/04/24 16:40,    9.3,    9.7,   10.4,   10.2,   10.0,    9.5,    9.0,    8.7,    6.9,    7.5,    9.4,   10.3,    9.4,    9.1,    8.9,    7.1,    7.8,    7.7,    6.9,    3.4,    1.1,    0.9,   -1.0,   -0.1,    0.8,    1.0,    1.3,    3.4,    3.4,    1.9
2006/04/24 16:50,    8.2,    8.1,   11.6,   10.1,    9.4,    8.6,    7.5,    7.7,    8.2,    9.1,    8.0,    8.2,    8.7,    8.2,    9.9,   10.5,   10.5,    9.8,    8.3,    8.6,    8.2,    8.4,    9.0,   11.0,   12.5,   10.9,   10.8,    5.2,    3.5,    4.3
2006/04/24 17:00,    6.7,    6.6,    8.1,    9.1,    8.4,    9.0,    8.3,    7.6,    6.8,    6.0,    6.7,    7.4,    8.4,    7.2,    5.7,    6.2,    5.9,    4.5,    4.4,    6.1,    3.8,    2.9,    2.7,    4.1,    6.1,    7.1,    8.0,    4.7,    2.3,    5.1
2006/04/24 17:10,    6.0,    7.8,    8.2,    9.0,    9.0,   10.5,    8.5,    7.2,    6.4,    4.0,  999.0,  999.0,    5.9,    7.1,    4.1,    2.9,    4.3,    2.1,   -2.7,   -0.8,  999.0,  999.0,   -1.4,   -0.2,   -1.2,   -1.6,    1.7,  999.0,  999.0,    0.9
2006/04/24 17:20,    5.4,  999.0,  999.0,  999.0,    8.0,    9.2,    9.5,  999.0,  999.0,  999.0,  999.0,    6.8,  999.0,  999.0,    1.1,  999.0,  999.0,  999.0,    0.9,   -1.1,  999.0,  999.0,  999.0,  999.0,  999.0,  999.0,  999.0,  999.0,  999.0,  999.0
2006/04/24 17:30,    5.9,    7.1,    7.4,    7.1,    8.3,    8.7,    9.3,    9.1,    9.7,    8.9,    7.5,    7.6,  999.0,  999.0,    1.6,    0.7,  999.0,    0.5,  999.0,    0.7,    0.1,  999.0,  999.0,    0.1,  999.0,  999.0,  999.0,  999.0,  999.0,  999.0
2006/04/24 17:40,    6.2,    7.0,    7.9,    8.9,    9.6,    9.6,    9.0,    9.4,    9.4,    9.4,    7.8,    8.0,    8.6,  999.0,  999.0,    0.7,  999.0,    1.3,    0.5,    0.6,  999.0,  999.0,    1.3,  999.0,   -0.2,  999.0,  999.0,  999.0,  999.0,  999.0
2006/04/24 17:50,    3.9,    7.1,    8.0,    8.8,    9.0,    9.0,    8.7,    9.4,    9.5,    9.2,    7.5,    7.6,    7.6,    5.8,    1.4,  999.0,  999.0,  999.0,  999.0,   -0.5,    1.9,  999.0,    0.7,    0.1,   -0.3,    1.9,  999.0,  999.0,  999.0,  999.0
2006/04/24 18:00,    5.8,    7.5,    8.6,    8.8,    8.9,    8.9,    9.1,    8.0,   10.0,   10.4,    9.3,    7.8,    7.1,    4.4,    2.4,    0.2,  999.0,  999.0,  999.0,  999.0,    0.5,  999.0,    0.8,  999.0,   -0.9,  999.0,  999.0,  999.0,  999.0,    0.2
2006/04/24 18:10,    8.0,    7.3,    8.5,    8.2,    8.4,    8.3,    8.3,   10.3,   10.7,   10.8,    9.4,    8.9,    7.3,    5.2,    1.3,    1.5,  999.0,    0.1,    0.1,  999.0,  999.0,  999.0,    0.1,  999.0,   -0.3,  999.0,  999.0,  999.0,  999.0,  999.0
2006/04/24 18:20,    6.5,    7.1,    8.1,    7.5,    8.4,    8.0,    9.2,    9.7,   10.3,  999.0,  999.0,    8.2,    7.0,    2.2,    1.5,  999.0,  999.0,  999.0,  999.0,  999.0,  999.0,  999.0,  999.0,  999.0,  999.0,  999.0,  999.0,  999.0,  999.0,  999.0
2006/04/24 18:30,    4.8,    6.6,    4.8,    6.8,    7.8,    8.6,    9.5,    9.3,    9.7,   10.9,    9.3,    8.6,    6.9,    4.3,  999.0,    0.8,  999.0,    0.3,  999.0,   -0.6,  999.0,  999.0,  999.0,    1.4,   -0.4,  999.0,  999.0,  999.0,  999.0,  999.0
2006/04/24 18:40,    4.3,    6.0,  999.0,    9.8,    6.6,    8.8,   11.0,    9.6,   10.1,   10.6,   10.0,    8.5,    6.8,    5.7,   -1.1,    0.2,  999.0,  999.0,  999.0,  999.0,  999.0,    0.3,    0.3,  999.0,  999.0,  999.0,  999.0,  999.0,  999.0,  999.0
2006/04/24 18:50,    4.3,    8.3,    8.4,    7.5,   11.4,    8.7,    7.5,   10.4,    9.2,   10.4,    9.2,    8.6,    7.0,    5.9,  999.0,    2.5,  999.0,  999.0,  999.0,  999.0,  999.0,  999.0,  999.0,  999.0,  999.0,  999.0,  999.0,  999.0,  999.0,  999.0
2006/04/24 19:00,    3.8,   -0.0,    7.2,    7.0,    7.3,    7.7,    9.2,    9.8,   10.4,   10.9,    9.1,    8.3,    5.5,    3.8,    0.5,  999.0,  999.0,  999.0,  999.0,  999.0,   -0.8,  999.0,  999.0,  999.0,  999.0,  999.0,  999.0,  999.0,  999.0,  999.0
2006/04/24 19:10,    4.7,    6.7,    8.2,    9.2,    7.0,    5.2,    6.0,    8.1,    9.5,    8.3,    8.2,    7.7,    5.5,    3.5,    1.1,    1.4,  999.0,  999.0,  999.0,  999.0,  999.0,  999.0,  999.0,  999.0,  999.0,  999.0,  999.0,  999.0,  999.0,  999.0
2006/04/24 19:20,    3.2,    2.4,    4.9,    5.9,  999.0,  999.0,    4.7,    8.7,   10.3,   10.3,   10.0,    7.1,    6.7,    5.0,  999.0,    1.2,  999.0,  999.0,  999.0,  999.0,  999.0,  999.0,  999.0,  999.0,  999.0,  999.0,  999.0,  999.0,  999.0,  999.0
2006/04/24 19:30,  999.0,    4.9,    5.8,    4.7,    4.1,    8.2,    9.3,   10.0,    9.4,   10.0,    8.8,    7.6,    6.9,  999.0,    3.0,    1.9,    3.1,  999.0,  999.0,    0.6,  999.0,  999.0,  999.0,  999.0,    0.1,  999.0,  999.0,  999.0,  999.0,  999.0
2006/04/24 19:40,    6.4,    8.7,    9.4,    9.0,    8.6,    9.8,    9.1,    9.4,    9.6,    9.6,    9.4,    8.5,    5.2,    5.0,    1.2,    0.8,  999.0,  999.0,  999.0,  999.0,  999.0,  999.0,  999.0,   -1.4,  999.0,  999.0,  999.0,  999.0,  999.0,  999.0
2006/04/24 19:50,   11.1,   12.0,   11.3,    5.2,   10.1,    7.3,    7.3,    9.5,    9.4,    8.9,    9.0,    8.2,    5.8,    4.1,  999.0,    0.3,  999.0,  999.0,  999.0,   -0.7,   -0.6,  999.0,  999.0,  999.0,  999.0,  999.0,  999.0,  999.0,  999.0,    2.1
2006/04/24 20:00,    4.0,    5.8,    6.8,    6.5,    8.7,    7.9,    8.8,    8.6,    9.0,    8.8,    8.0,    8.0,    4.6,    2.4,    2.2,   -1.0,  999.0,  999.0,  999.0,    0.1,  999.0,  999.0,  999.0,  999.0,    0.1,  999.0,  999.0,  999.0,  999.0,  999.0
2006/04/24 20:10,    3.9,    5.7,    6.4,    5.6,  999.0,    9.0,    8.8,    8.9,    8.0,    8.7,    9.0,    8.0,    5.7,    4.2,    2.9,    0.6,  999.0,  999.0,  999.0,   -1.6,  999.0,  999.0,  999.0,  999.0,  999.0,  999.0,  999.0,  999.0,  999.0,  999.0
2006/04/24 20:20,    4.8,    7.9,    5.7,   -0.4,    7.4,    7.9,    7.4,    8.6,    7.5,    7.9,    8.4,    8.0,    4.1,    3.5,    2.5,   -0.8,  999.0,  999.0,  999.0,  999.0,  999.0,  999.0,  999.0,  999.0,  999.0,  999.0,  999.0,  999.0,  999.0,  999.0
2006/04/24 20:30,    6.6,    5.7,    5.5,    5.7,    7.1,    6.9,    8.0,    8.1,    8.2,    8.0,    7.8,    6.8,    5.6,    3.3,    3.3,  999.0,  999.0,  999.0,  999.0,    0.9,  999.0,  999.0,  999.0,  999.0,  999.0,  999.0,  999.0,  999.0,  999.0,  999.0
2006/04/24 20:40,    4.6,  999.0,    4.8,    6.1,    8.6,    8.6,    8.2,    7.9,    8.2,    7.6,    8.1,    6.6,    4.4,    3.0,    3.4,    3.3,    5.5,  999.0,  999.0,  999.0,  999.0,  999.0,  999.0,  999.0,  999.0,  999.0,  999.0,  999.0,  999.0,  999.0
2006/04/24 20:50,    5.3,    4.8,    6.1,    4.3,    7.8,    8.6,    8.7,    8.2,    7.9,    7.6,    8.0,    7.5,    5.0,    3.4,    3.8,    0.8,  999.0,  999.0,  999.0,  999.0,  999.0,  999.0,  999.0,   -0.6,  999.0,  999.0,  999.0,  999.0,  999.0,  999.0
2006/04/24 21:00,    3.9,    0.1,    4.8,    6.5,    7.3,    7.2,    9.1,    8.9,    8.6,    8.5,    7.7,    7.8,    5.2,    3.4,    3.3,    2.4,  999.0,  999.0,  999.0,  999.0,  999.0,  999.0,  999.0,  999.0,  999.0,  999.0,  999.0,  999.0,  999.0,  999.0
2006/04/24 21:10,    3.5,    5.3,    6.8,    7.7,    7.9,    8.5,    9.3,    9.2,    8.8,    9.0,    8.1,    9.0,    5.6,    4.0,    3.0,    2.9,  999.0,  999.0,  999.0,  999.0,  999.0,  999.0,  999.0,  999.0,  999.0,  999.0,  999.0,  999.0,  999.0,  999.0
2006/04/24 21:20,    3.9,    3.7,    5.1,  999.0,    8.2,  999.0,    9.5,    9.3,    8.5,    8.9,    8.2,    8.4,    4.9,    3.3,    3.2,    1.9,  999.0,  999.0,  999.0,  999.0,  999.0,  999.0,  999.0,  999.0,  999.0,  999.0,  999.0,  999.0,  999.0,  999.0
2006/04/24 21:30,    4.0,    3.0,    3.7,    8.6,   14.8,    8.4,    9.3,    8.9,    9.3,    8.8,    7.2,    5.7,    4.8,    2.1,    2.8,  999.0,  999.0,  999.0,  999.0,  999.0,  999.0,  999.0,  999.0,  999.0,    0.0,  999.0,  999.0,  999.0,  999.0,  999.0
2006/04/24 21:40,    5.2,    5.1,    4.3,    4.3,    5.0,    5.6,    7.1,    8.8,    8.4,    8.9,    8.0,    8.7,    6.8,    4.7,    2.5,    0.3,  999.0,  999.0,  999.0,  999.0,  999.0,  999.0,  999.0,  999.0,  999.0,  999.0,  999.0,  999.0,  999.0,  999.0
2006/04/24 21:50,    3.9,    5.4,  999.0,    0.2,  999.0,    8.4,    8.8,    9.2,    8.7,    8.7,    8.8,    9.2,    7.4,    5.5,    4.8,    3.1,  999.0,  999.0,  999.0,  999.0,  999.0,  999.0,  999.0,  999.0,  999.0,  999.0,  999.0,  999.0,  999.0,  999.0
2006/04/24 22:00,    3.5,    4.6,    3.1,    7.0,    9.3,    7.5,    8.2,    8.2,    8.2,    7.9,    7.9,    8.2,    6.1,    4.6,    3.1,    0.9,  999.0,  999.0,  999.0,  999.0,  999.0,  999.0,  999.0,  999.0,  999.0,  999.0,  999.0,  999.0,  999.0,  999.0
2006/04/24 22:10,    1.4,    4.6,    3.0,    3.8,    7.0,    7.8,    8.0,    8.5,    7.6,    7.8,    7.9,    7.5,    5.6,    4.5,    2.9,    1.4,  999.0,  999.0,  999.0,  999.0,  999.0,  999.0,  999.0,   -1.1,  999.0,  999.0,  999.0,  999.0,  999.0,  999.0
2006/04/24 22:20,  999.0,    9.1,    5.4,  999.0,    6.9,    7.8,    7.4,    7.5,    7.6,    7.3,    8.3,    7.5,    6.3,    4.9,    2.4,  999.0,  999.0,  999.0,  999.0,  999.0,  999.0,  999.0,  999.0,  999.0,  999.0,  999.0,  999.0,  999.0,  999.0,  999.0
2006/04/24 22:30,    3.5,    4.4,    4.2,    5.8,    7.6,    7.8,    7.4,    7.7,    7.7,    7.0,    7.1,    7.6,    5.9,    5.4,    2.9,  999.0,  999.0,  999.0,  999.0,   -0.4,  999.0,  999.0,  999.0,  999.0,  999.0,  999.0,  999.0,  999.0,  999.0,  999.0
2006/04/24 22:40,    4.2,    5.8,    6.5,    2.4,    6.3,    7.5,    7.8,    7.8,    7.1,    7.3,    7.7,    6.8,    5.4,    3.9,  999.0,    1.9,  999.0,  999.0,    2.0,  999.0,  999.0,  999.0,  999.0,  999.0,  999.0,  999.0,  999.0,  999.0,  999.0,  999.0
2006/04/24 22:50,    2.5,    2.6,    5.6,    4.7,    6.0,    7.2,    8.1,    8.2,    8.5,    7.1,    7.0,    6.0,    5.0,    3.6,  999.0,  999.0,  999.0,  999.0,  999.0,  999.0,  999.0,  999.0,  999.0,  999.0,  999.0,  999.0,  999.0,  999.0,  999.0,  999.0
2006/04/24 23:00,    2.9,    3.8,    8.4,    4.7,    6.4,    7.6,    7.4,    8.0,    8.0,    7.6,    7.9,    7.0,    5.4,    4.1,    1.8,  999.0,  999.0,  999.0,  999.0,  999.0,  999.0,  999.0,  999.0,  999.0,  999.0,  999.0,  999.0,  999.0,  999.0,  999.0
2006/04/24 23:10,    2.4,    3.7,    6.6,    5.2,    7.3,    7.7,    7.6,    7.9,    7.1,    7.8,    7.6,    7.2,    6.7,    5.2,  999.0,  999.0,  999.0,  999.0,  999.0,  999.0,  999.0,  999.0,  999.0,  999.0,  999.0,  999.0,  999.0,  999.0,  999.0,  999.0
2006/04/24 23:20,    2.6,    6.0,  999.0,    5.3,    5.6,    5.8,    7.2,    7.6,    8.1,    7.2,    7.6,    7.5,    6.1,    4.9,    3.2,  999.0,  999.0,  999.0,  999.0,  999.0,  999.0,  999.0,  999.0,  999.0,    1.4,  999.0,  999.0,  999.0,  999.0,  999.0
2006/04/24 23:30,    3.5,    2.8,    3.2,  999.0,    6.1,    6.9,    7.1,    7.3,    6.7,    6.9,  999.0,    7.5,    5.6,    5.6,    2.9,    2.2,  999.0,  999.0,  999.0,  999.0,  999.0,  999.0,  999.0,   -0.9,  999.0,  999.0,  999.0,  999.0,  999.0,  999.0
2006/04/24 23:40,    2.8,    4.3,    6.4,    4.7,    5.9,    7.3,    8.2,    8.2,    8.5,    8.6,    7.4,    7.4,    6.9,    5.0,    2.7,  999.0,  999.0,  999.0,  999.0,  999.0,  999.0,  999.0,  999.0,  999.0,  999.0,  999.0,  999.0,  999.0,  999.0,  999.0
2006/04/24 23:50,  999.0,  999.0,    6.5,    3.5,    5.9,    7.8,    7.9,    8.0,    8.3,    8.0,    6.8,    6.8,    4.2,    4.4,    2.3,    1.8,  999.0,  999.0,  999.0,   -0.3,  999.0,  999.0,  999.0,    0.7,  999.0,  999.0,  999.0,  999.0,  999.0,  999.0
